[[{"header":{"parameterUnit":"m.s-1","parameterCategory":1,"la1":30.2991,"la2":30.254,"lo1":-89.0895,"lo2":-89.0444,"dy":0.0017,"dx":0.0017,"nx":28,"ny":28,"refTime":"2024-11-25T03:00:00:Z","depth":0,"parameterNumber":2,"parameterNumberName":"U-component_of_WINDS"},"data":[0,0,0,0,0,0,0,0,0,0,0,0,0,0,0,0,0,0,0,0,0,0,0,0,0,0,0,0,0,0,0,0,0,0,0,0,0,0,0,0,0,0,0,0,0,0,0,0,0,0,0,0,0,0,0,0,0,0,0.3259,0.3259,0,0.3237,0.3237,0.3237,0.3217,0.3217,0.3216,0.3216,0.3192,0.3192,0.3191,0,0,0,0,0,0,0,0,0,0,0,0,0,0.3284,0.3283,0.3259,0.3259,0.3259,0.3237,0.3237,0.3237,0.3217,0.3217,0.3216,0.3216,0.3192,0.3192,0.3191,0,0,0,0,0,0,0,0,0,0,0,0,0,0.3269,0.3283,0.3259,0.3246,0.3245,0.3237,0.3237,0.3237,0.3217,0.3217,0.3216,0.3216,0.3193,0.3192,0.3191,0.3194,0,0,0.3189,0.3189,0,0,0,0,0,0,0,0,0.3269,0.3268,0.3249,0.3247,0.3246,0.3229,0.3237,0.3222,0.3217,0.3228,0.3216,0.3216,0.3205,0.3203,0.32,0.3193,0.3192,0.3189,0.3189,0.3189,0.3188,0,0,0,0,0,0,0,0.3271,0.3269,0.3251,0.3248,0.3247,0.3241,0.3239,0.3234,0.3218,0.3227,0.3225,0.3223,0.3204,0.32,0.3199,0.3192,0.3189,0.3189,0.3188,0.3188,0.3188,0.3188,0,0,0,0,0,0,0.3274,0.327,0.3251,0.325,0.3257,0.3241,0.3238,0.3235,0.3218,0.3216,0.3223,0.3222,0.3202,0.32,0.3198,0.3201,0.3189,0.3188,0.3188,0.3187,0.3188,0.3188,0,0,0,0,0,0,0.3274,0.3272,0.3252,0.3259,0.3256,0.3241,0.3238,0.3235,0.3231,0.3216,0.3213,0.3222,0.3201,0.3199,0.3196,0.32,0.3188,0.3187,0.3187,0.3188,0.3188,0.3207,0,0,0,0,0,0,0.3275,0.3273,0.3274,0.326,0.3256,0.325,0.3238,0.3235,0.323,0.3229,0.3214,0.3212,0.3201,0.3197,0.3195,0.3199,0.3187,0.3186,0.3187,0.3188,0.3206,0.3208,0.321,0,0,0,0,0,0.3276,0.3279,0.3274,0.3272,0.3257,0.3251,0.3249,0.3237,0.3231,0.3232,0.3222,0.3212,0.32,0.3197,0.3195,0.3198,0.3186,0.3187,0.3188,0.3205,0.3208,0.321,0,0,0,0,0,0,0.3294,0.3277,0.3271,0.327,0.3262,0.3247,0.3248,0.324,0.3233,0.3231,0.3216,0.3213,0.3212,0.3205,0.3201,0.3201,0.3192,0.3192,0.3206,0.3208,0.321,0.3212,0.3186,0,0,0,0,0,0.3298,0.3294,0.328,0.328,0.3277,0.3263,0.326,0.3251,0.3242,0.3239,0.3229,0.322,0.3214,0.3211,0.3204,0.3205,0.3202,0.3207,0.3209,0.321,0.3211,0.3211,0.3213,0.3191,0.3191,0.3191,0,0,0.3306,0.3296,0.3295,0.3284,0.3276,0.3273,0.326,0.3257,0.3254,0.3238,0.3235,0.3227,0.3216,0.3215,0.3214,0.3209,0.3216,0.3211,0.3213,0.3212,0.3212,0.3214,0.3216,0.3191,0.3191,0.3191,0,0,0.3318,0.3311,0.331,0.3304,0.3293,0.3285,0.3285,0.3272,0.3266,0.3263,0.3251,0.3247,0.3237,0.323,0.3226,0.3237,0.3228,0.3235,0.3246,0.3246,0.3248,0.325,0.3254,0.3256,0.3236,0.3236,0.3236,0,0.3329,0.3324,0.3311,0.3309,0.3305,0.3291,0.3291,0.3284,0.3272,0.327,0.3265,0.3253,0.3244,0.3242,0.3245,0.3241,0.3241,0.3237,0.3249,0.325,0.3252,0.3256,0.3257,0.3237,0.3237,0.3237,0.3237,0,0.3338,0.3334,0.3335,0.3325,0.3321,0.3319,0.3307,0.3304,0.3296,0.3288,0.3285,0.3275,0.3267,0.3266,0.3258,0.3262,0.3259,0.3252,0.3242,0.3255,0.3258,0.326,0.3238,0.3238,0.3238,0.3237,0,0,0.336,0.3344,0.3344,0.334,0.3328,0.3325,0.3323,0.3316,0.3314,0.3306,0.3305,0.3297,0.329,0.3285,0.3276,0.3277,0.3287,0.3269,0.3269,0.3273,0.3292,0.3298,0.33,0.3281,0.3281,0.3281,0.3293,0,0.3371,0.3367,0.3357,0.3356,0.3353,0.334,0.3339,0.3331,0.3324,0.332,0.3312,0.3307,0.3298,0.3295,0.3295,0.3286,0.329,0.3285,0.3279,0.3279,0.3282,0.3301,0.3307,0.3319,0.3294,0.3294,0.3294,0,0.3382,0.3377,0.3376,0.3365,0.3363,0.3362,0.3355,0.3352,0.3343,0.3338,0.3332,0.3323,0.3321,0.3312,0.3309,0.3305,0.3302,0.3298,0.3298,0.3297,0.3288,0.3301,0.3322,0.3324,0.3296,0.3296,0.3296,0,0.3399,0.3391,0.339,0.3387,0.3373,0.3373,0.3368,0.3359,0.3355,0.3349,0.3347,0.334,0.3337,0.3332,0.3321,0.3316,0.3319,0.3309,0.3314,0.3315,0.3315,0.3316,0.3336,0.3314,0.3314,0.3314,0.3314,0,0.3412,0.3413,0.3398,0.3397,0.3397,0.3385,0.3386,0.3379,0.3371,0.3369,0.3357,0.3356,0.3341,0.3338,0.3329,0.3328,0.3326,0.3322,0.332,0.3323,0.3324,0.3321,0.332,0.3314,0.3314,0.3314,0.3314,0,0.3431,0.3421,0.3419,0.3407,0.3404,0.3405,0.3395,0.3394,0.3386,0.3383,0.3382,0.337,0.3365,0.3354,0.3346,0.334,0.3342,0.3337,0.3345,0.3343,0.3349,0.3349,0.3369,0.3371,0.3347,0.3347,0.3348,0,0.344,0.344,0.3429,0.3427,0.3422,0.3419,0.3415,0.3404,0.3401,0.3392,0.3392,0.3386,0.3382,0.3375,0.3365,0.3359,0.3355,0.3363,0.3354,0.3358,0.3356,0.3356,0.3356,0.3364,0.3365,0.3365,0.3365,0,0.3457,0.3452,0.3448,0.3443,0.3439,0.3434,0.3429,0.3428,0.3415,0.3412,0.3408,0.3404,0.3397,0.3392,0.3385,0.3379,0.337,0.3368,0.3369,0.3372,0.3377,0.3375,0.335,0.3368,0.3367,0.3367,0.3367,0.3367,0.3471,0.3471,0.3463,0.3459,0.3454,0.3449,0.3448,0.344,0.3437,0.343,0.3424,0.342,0.3412,0.3402,0.3397,0.3394,0.3389,0.339,0.3391,0.3391,0.3393,0.3377,0.3392,0.3392,0.3392,0.3392,0.3392,0,0.3488,0.3483,0.3479,0.3472,0.3469,0.3462,0.3455,0.3453,0.3451,0.3444,0.344,0.3435,0.3431,0.3421,0.3415,0.3415,0.3411,0.3414,0.3414,0.3413,0.3397,0.3397,0.3417,0.3417,0.3417,0.3417,0.3417,0.3417,0.3496,0.3496,0.3491,0.3488,0.3482,0.3479,0.3476,0.3472,0.3467,0.3462,0.3458,0.3452,0.3445,0.3439,0.3434,0.3432,0.343,0.3435,0.3431,0.3416,0.3414,0.3412,0.3411,0.3434,0.3434,0.3447,0.3447,0.3447]},{"header":{"parameterUnit":"m.s-1","parameterCategory":1,"la1":30.2991,"la2":30.254,"lo1":-89.0895,"lo2":-89.0444,"dy":0.0017,"dx":0.0017,"nx":28,"ny":28,"refTime":"2024-11-25T03:00:00:Z","depth":0,"parameterNumber":3,"parameterNumberName":"V-component_of_WINDS"},"data":[0,0,0,0,0,0,0,0,0,0,0,0,0,0,0,0,0,0,0,0,0,0,0,0,0,0,0,0,0,0,0,0,0,0,0,0,0,0,0,0,0,0,0,0,0,0,0,0,0,0,0,0,0,0,0,0,0,0,-3.3538,-3.354,0,-3.3665,-3.3666,-3.3668,-3.3693,-3.3692,-3.3691,-3.369,-3.3815,-3.3819,-3.3823,0,0,0,0,0,0,0,0,0,0,0,0,0,-3.3315,-3.3319,-3.3538,-3.354,-3.3541,-3.3665,-3.3666,-3.3668,-3.3693,-3.3692,-3.369,-3.3689,-3.3814,-3.3819,-3.3824,0,0,0,0,0,0,0,0,0,0,0,0,0,-3.3423,-3.332,-3.3538,-3.3569,-3.3573,-3.3664,-3.3667,-3.3669,-3.3693,-3.3692,-3.369,-3.3689,-3.3812,-3.3818,-3.3825,-3.3893,0,0,-3.3844,-3.3847,0,0,0,0,0,0,0,0,-3.3417,-3.3432,-3.3563,-3.3567,-3.3571,-3.3662,-3.3634,-3.3744,-3.3693,-3.3647,-3.369,-3.3688,-3.3765,-3.3775,-3.3802,-3.3899,-3.3905,-3.3845,-3.3848,-3.3851,-3.3853,0,0,0,0,0,0,0,-3.341,-3.3426,-3.3588,-3.3564,-3.357,-3.3575,-3.3589,-3.3655,-3.3713,-3.3651,-3.3653,-3.3668,-3.3767,-3.3796,-3.3805,-3.3906,-3.3844,-3.385,-3.3854,-3.3857,-3.4067,-3.4069,0,0,0,0,0,0,-3.3397,-3.342,-3.3584,-3.3592,-3.3489,-3.358,-3.3596,-3.3634,-3.3712,-3.3723,-3.3669,-3.3669,-3.3786,-3.3798,-3.381,-3.3896,-3.3851,-3.3857,-3.3861,-3.4065,-3.4068,-3.407,0,0,0,0,0,0,-3.3392,-3.3412,-3.3579,-3.3507,-3.3528,-3.3586,-3.3628,-3.3637,-3.3666,-3.3726,-3.3736,-3.3688,-3.3785,-3.3801,-3.3873,-3.39,-3.386,-3.3866,-3.4063,-3.4066,-3.4069,-3.4068,0,0,0,0,0,0,-3.3386,-3.341,-3.3437,-3.3507,-3.3532,-3.3641,-3.363,-3.3641,-3.3678,-3.3678,-3.3746,-3.3756,-3.3785,-3.3863,-3.3879,-3.3908,-3.3871,-3.4061,-3.4065,-3.4068,-3.4066,-3.407,-3.4074,0,0,0,0,0,-3.3378,-3.3431,-3.3438,-3.3458,-3.3568,-3.3643,-3.3657,-3.369,-3.368,-3.3707,-3.3746,-3.3754,-3.3895,-3.387,-3.3889,-3.392,-3.406,-3.4064,-3.4068,-3.4064,-3.407,-3.4074,0,0,0,0,0,0,-3.336,-3.344,-3.345,-3.3527,-3.3578,-3.3647,-3.3682,-3.3695,-3.3749,-3.3747,-3.3785,-3.38,-3.387,-3.3903,-3.3874,-3.3991,-3.3977,-3.3984,-3.3968,-3.3973,-3.3977,-3.3968,-3.3876,0,0,0,0,0,-3.3366,-3.3421,-3.3488,-3.3549,-3.3575,-3.3624,-3.3658,-3.368,-3.3734,-3.3755,-3.3799,-3.3849,-3.3905,-3.3941,-3.3996,-3.4071,-3.4086,-3.4102,-3.4106,-3.4109,-3.4115,-3.4158,-3.4166,-3.4083,-3.4083,-3.4083,0,0,-3.3377,-3.3427,-3.346,-3.3547,-3.3589,-3.3645,-3.3642,-3.3701,-3.3742,-3.3763,-3.3835,-3.3869,-3.3928,-3.4002,-3.4037,-3.4031,-3.4142,-3.4114,-3.4116,-3.4121,-3.4163,-3.4171,-3.4177,-3.4085,-3.4085,-3.4084,0,0,-3.3426,-3.347,-3.3527,-3.357,-3.3634,-3.3667,-3.3681,-3.3748,-3.3772,-3.3845,-3.3862,-3.3911,-3.4007,-3.4049,-3.4082,-3.4149,-3.4159,-3.4166,-3.4187,-3.4229,-3.4235,-3.4241,-3.4265,-3.4273,-3.4172,-3.4172,-3.4172,0,-3.3431,-3.3517,-3.3554,-3.3613,-3.365,-3.3674,-3.3732,-3.3771,-3.3849,-3.3875,-3.3868,-3.3989,-3.403,-3.4115,-3.4132,-3.4158,-3.4175,-3.4158,-3.4232,-3.4238,-3.4244,-3.4267,-3.4276,-3.4172,-3.4172,-3.4172,-3.4172,0,-3.352,-3.3579,-3.3617,-3.3695,-3.3737,-3.3795,-3.384,-3.3878,-3.3897,-3.393,-3.4004,-3.4055,-3.4121,-3.4143,-3.416,-3.423,-3.4225,-3.4224,-3.421,-3.4252,-3.4274,-3.4283,-3.4173,-3.4173,-3.4173,-3.4173,0,0,-3.356,-3.3659,-3.3672,-3.3708,-3.3782,-3.3828,-3.3887,-3.3953,-3.3985,-3.4039,-3.4089,-3.417,-3.4171,-3.4209,-3.4232,-3.4268,-3.4318,-3.4263,-3.4265,-3.4271,-3.4398,-3.4398,-3.4408,-3.4325,-3.4327,-3.4328,-3.4393,0,-3.3617,-3.3725,-3.3761,-3.3849,-3.3905,-3.3929,-3.398,-3.4031,-3.4064,-3.4115,-3.4151,-3.4208,-3.4204,-3.4228,-3.4265,-3.4304,-3.4344,-3.43,-3.4371,-3.4373,-3.4355,-3.4419,-3.4419,-3.4478,-3.4402,-3.4404,-3.4405,0,-3.3699,-3.3756,-3.385,-3.3919,-3.3943,-3.3989,-3.4053,-3.4102,-3.416,-3.4181,-3.4225,-3.4246,-3.4308,-3.4291,-3.4376,-3.4346,-3.4377,-3.4401,-3.4404,-3.4411,-3.4391,-3.4428,-3.4497,-3.4506,-3.4419,-3.4418,-3.4417,0,-3.3718,-3.3819,-3.3889,-3.3919,-3.4,-3.4032,-3.4067,-3.4123,-3.4161,-3.4217,-3.4242,-3.4304,-3.4337,-3.4384,-3.4421,-3.4405,-3.4503,-3.4489,-3.4522,-3.4521,-3.4541,-3.4539,-3.4616,-3.4562,-3.4562,-3.4562,-3.4561,0,-3.3778,-3.3835,-3.3899,-3.3942,-3.4006,-3.4047,-3.4109,-3.4146,-3.4196,-3.4246,-3.427,-3.4316,-3.4362,-3.4414,-3.4443,-3.451,-3.4524,-3.4543,-3.455,-3.4541,-3.4538,-3.4561,-3.4558,-3.4564,-3.4563,-3.4563,-3.4562,0,-3.381,-3.3855,-3.3933,-3.4005,-3.4024,-3.4069,-3.413,-3.4172,-3.4207,-3.427,-3.4287,-3.4341,-3.4404,-3.4445,-3.4525,-3.4544,-3.4617,-3.4623,-3.4598,-3.4601,-3.4632,-3.4628,-3.4725,-3.474,-3.4676,-3.4677,-3.4677,0,-3.3845,-3.389,-3.3968,-3.4004,-3.404,-3.4097,-3.4137,-3.4179,-3.4219,-3.4289,-3.4323,-3.4387,-3.4441,-3.454,-3.4586,-3.4647,-3.4654,-3.4684,-3.4663,-3.4653,-3.4655,-3.4652,-3.4656,-3.4687,-3.4688,-3.4688,-3.4688,0,-3.3903,-3.3924,-3.3981,-3.4046,-3.4093,-3.4146,-3.4199,-3.4227,-3.4278,-3.4321,-3.4387,-3.4429,-3.4511,-3.4575,-3.4641,-3.4676,-3.4691,-3.4695,-3.4706,-3.4697,-3.468,-3.469,-3.4606,-3.4692,-3.4692,-3.4692,-3.4691,-3.4691,-3.3938,-3.3979,-3.4041,-3.4104,-3.4148,-3.4198,-3.4242,-3.4283,-3.4339,-3.441,-3.4432,-3.45,-3.4557,-3.4647,-3.4684,-3.4737,-3.4734,-3.4749,-3.4753,-3.4756,-3.4757,-3.4672,-3.4749,-3.4749,-3.4749,-3.4749,-3.4749,0,-3.3997,-3.4038,-3.4096,-3.417,-3.422,-3.4232,-3.4291,-3.4331,-3.4392,-3.4445,-3.4498,-3.4574,-3.4636,-3.4688,-3.4752,-3.4785,-3.4793,-3.48,-3.4798,-3.4806,-3.4756,-3.474,-3.4793,-3.4793,-3.4793,-3.4793,-3.4793,-3.4793,-3.4033,-3.4104,-3.4132,-3.4226,-3.4266,-3.4335,-3.4368,-3.4413,-3.4456,-3.454,-3.4593,-3.4627,-3.468,-3.4748,-3.4806,-3.482,-3.4842,-3.4848,-3.4862,-3.4814,-3.4809,-3.4805,-3.479,-3.4852,-3.4852,-3.4908,-3.4909,-3.4909]}]]